Location: Unspecified
(44.4377°N, 88.0525°W)
Time: 02:35:00
(UTC-05:00)

Cosmos 1674 - Visible Passes

Search period start: 20 September 2017 00:00
Search period end: 30 September 2017 00:00
Orbit: 498 x 522 km, 82.5° (Epoch: 19 September)

Date Brightness Start Highest point End Pass type
(mag) Time Alt. Az. Time Alt. Az. Time Alt. Az.
20 Sep 3.9 21:01:11 10° N 21:03:23 32° NNE 21:03:23 32° NNE visible
21 Sep 3.6 20:44:31 10° N 20:47:00 34° NNE 20:47:00 34° NNE visible
21 Sep 6.0 22:21:45 10° WNW 22:21:54 10° WNW 22:21:54 10° WNW visible
22 Sep 3.6 20:27:53 10° N 20:30:39 32° NE 20:30:39 32° NE visible
22 Sep 5.7 22:04:23 10° NW 22:05:33 14° WNW 22:05:33 14° WNW visible
23 Sep 3.6 20:11:18 10° NNE 20:14:20 28° ENE 20:14:20 28° ENE visible
23 Sep 5.3 21:47:16 10° NW 21:49:14 18° WNW 21:49:14 18° WNW visible
24 Sep 3.9 19:54:46 10° NNE 19:57:46 22° ENE 19:58:04 22° E visible
24 Sep 4.8 21:30:15 10° NW 21:32:59 24° W 21:32:59 24° W visible
25 Sep 4.1 19:38:18 10° NNE 19:40:57 18° ENE 19:41:52 17° E visible
25 Sep 4.3 21:13:18 10° NNW 21:16:37 30° W 21:16:47 30° W visible
26 Sep 4.4 19:21:57 10° NE 19:24:07 15° ENE 19:25:44 12° E visible
26 Sep 3.9 20:56:25 10° NNW 20:59:55 39° W 21:00:40 34° WSW visible
27 Sep 4.6 19:05:51 10° NE 19:07:16 12° ENE 19:08:40 10° E visible
27 Sep 3.4 20:39:33 10° NNW 20:43:12 50° W 20:44:38 31° SSW visible
28 Sep 2.9 20:22:45 10° NNW 20:26:28 67° W 20:28:44 22° S visible
29 Sep 2.6 20:05:59 10° N 20:09:44 87° W 20:13:00 13° S visible
